User: anonymous
Location: NJAA Observatory
(40.6819°N, 74.8979°W)
Time: 07:13:13
(UTC-04:00)
Language:

Meteor 2-9 Rocket - Orbit

View from above orbital plane
View from above orbital plane
View from above satellite
View from above satellite

Ground track
Ground track

The orbit data is extracted from the following two-line orbital elements,

1 13719U 82116B   14243.70634598  .00000010  00000-0 -13320-5 0  5009
2 13719 081.2523 279.9794 0071961 024.5488 112.6146 14.14474761636090
Epoch (UTC): 31 August 2014 16:57:08
Eccentricity: 0.0071961
inclination: 81.2523°
perigee height: 792 km
apogee height: 896 km
right ascension of ascending node: 279.9794°
argument of perigee: 24.5488°
revolutions per day: 14.14474761
mean anomaly at epoch: 112.6146°
orbit number at epoch: 63609

The dashed part of the orbit path shows where the satellite is in the earth's shadow,  

DLR